Weather in Mikhaylovsk

Russia / Sverdlovsk Oblast     56°26′08″N   59°07′13″E
temp.,
°C
wind,
m/s
gust,
m/s
humid.,
%
clouds,
%
prec.,
mm/h
press.,
hPa
HPBL,
m
16 june, wed
wed1623:00+15sw119694 0.6 101618
02:00+14ssw119591 0.0 101611
05:00+14s119417 0.0 101612
08:00+20s127263 0.0 1015238
11:00+26ssw23443 0.0 10141035
14:00+30sw362827 0.0 10123107
17:00+28ssw6836100 0.1 10112683
20:00+22sse4116152 0.5 1011468
17 june, thu
thu1723:00+15sse268696 0.6 1010134
02:00+15sw31192100 0.9 1010408
05:00+14s21097100 0.9 1008320
08:00+17sw498959 0.8 1007499
11:00+22w466336 1.2 10061078
14:00+21nw3573100 2.0 1006975
17:00+18nnw489084 3.4 1006718
20:00+17nnw49576 0.1 10081107
18 june, fri
fri1823:00+13nnw412674 0.1 1010619
02:00+13nnw4106597 0.1 1011758
05:00+10nnw267996 0.1 1014202
08:00+13nne57541 0.0 1015844
11:00+15nne4748100 0.0 10171986
14:00+18n673594 0.0 10182714
17:00+19nnw6831100 0.0 10182656
20:00+16nnw59377 0.0 10191168
19 june, sat
sat1923:00+10wnw226493 0.0 102023
02:00+11nw2960100 0.0 1021321
05:00+11wnw31165100 0.0 1020726
08:00+12wnw31075100 0.1 1021582
11:00+14w1671100 0.1 1019461
14:00+19n4859100 0.1 10181337
17:00+19nw5962100 0.5 10171288
20:00+18nnw277492 0.2 1017333
20 june, sun
sun2023:00+15wnw0082100 0.2 101711
02:00+15sw118311 0.0 101711
05:00+13wsw119759 0.0 101714
08:00+17wnw188747 0.0 1017294
11:00+25nw61153100 0.0 10161500
14:00+27nnw6114592 0.0 10152240
17:00+25nnw494923 0.0 10161480
20:00+23n48540 0.0 1017738